Regional Weather Roundup
Issued by NWS

Home | Current Version | Previous Version | Text Only | Print | Product List | Glossary On
Versions: 1 2 3 4 5 6 7 8 9 10 11 12 13 14 15 16 17 18 19 20 21 22 23 24 25 26 27 28 29 30 31 32 33 34 35 36 37 38 39 40 41 42 43 44 45 46 47 48 49 50
000
ASUS44 KBMX 222010
RWRAL

ALABAMA REGIONAL WEATHER ROUNDUP
NATIONAL WEATHER SERVICE BIRMINGHAM AL
300 PM CDT MON MAY 22 2017

NOTE: "FAIR" INDICATES FEW OR NO CLOUDS BELOW 12,000 FEET
WITH NO SIGNIFICANT WEATHER AND/OR OBSTRUCTIONS TO VISIBILITY.

THE REMARK "TC" DENOTES TEMPERATURE IN DEGREES CELSIUS.

ALZ001>011-014-016>018-020-222100-
NORTH ALABAMA

CITY           SKY/WX    TMP DP  RH WIND       PRES   REMARKS
MUSCLE SHOALS  PTSUNNY   78  58  49 VRB5      30.01F
HUNTSVILLE     CLOUDY    78  61  55 CALM      29.99F
DECATUR        PTSUNNY   78  61  55 N7        30.00F
HALEYVILLE     FAIR      76  62  62 VRB3      30.03F
GADSDEN        LGT RAIN  70  70 100 NW6       30.01F
$$

ALZ012-013-022-023-030>036-040>044-222100-
WEST CENTRAL ALABAMA

CITY           SKY/WX    TMP DP  RH WIND       PRES   REMARKS
TUSCALOOSA     CLOUDY    80  67  64 NW3       29.98F
$$

ALZ015-024>027-033>036-040>044-222100-
CENTRAL ALABAMA

CITY           SKY/WX    TMP DP  RH WIND       PRES   REMARKS
BIRMINGHAM     CLOUDY    75  70  84 VRB3      30.01F
MONTGOMERY     CLOUDY    81  70  69 N8        29.96F
SHELBY CO ARPT HVY RAIN  73  68  84 CALM      29.97F VSB 1/4
MAXWELL AFB    LGT RAIN  78  70  76 N3        29.96F
GREENVILLE     PTSUNNY   82  65  56 SW7       29.97F
$$

ALZ019-021-028-029-037-038-045>048-222100-
EAST CENTRAL ALABAMA

CITY           SKY/WX    TMP DP  RH WIND       PRES   REMARKS
ANNISTON       PTSUNNY   74  70  87 SW3       29.99F
ALEXANDER CITY CLOUDY    77  68  72 CALM      29.99F
AUBURN         CLOUDY    77  72  83 N6        29.99F
$$

ALZ051>064-222100-
SOUTHWEST ALABAMA

CITY           SKY/WX    TMP DP  RH WIND       PRES   REMARKS
MOBILE         CLOUDY    79  68  69 W5        30.00F
BROOKLEY FIELD CLOUDY    80  69  69 CALM      29.99F
EVERGREEN      CLOUDY    84  68  58 S6        29.97F
$$

ALZ049-050-065>069-222100-
SOUTHEAST ALABAMA

CITY           SKY/WX    TMP DP  RH WIND       PRES   REMARKS
DOTHAN         MOSUNNY   85  68  56 SW5       30.00F
OZARK          MOSUNNY   85  68  57 SW9       29.96F
TROY           PTSUNNY   82  69  64 SW8       29.97F
EUFAULA        PTSUNNY   84  72  67 CALM      29.94F
$$



USA.gov is the U.S. government's official web portal to all federal, state and local government web resources and services.